Follow iAlert.com on twitter @ialertcom
Search For Active Alerts in Your Area  
  Hi Guest:  [ Sign-up / Services ] [ Login ]

Current weather by "City, St" or "zip code"  
 

Advertise Here

Current Conditions: Fort Hood, Hood AAF Ft Hood, TX

Overcast


77.0 F

Last Updated on Jun 18 2018, 3:58 am CDT
Humidity: 83%
Wind Speed: SE 11.5 mph
Barometer 29.90 in
Dewpoint: 71.1 F
Visibility: 10.00 mi
Precip: --
Heat Index: NA
Wind Chill: NA
Current conditions at:

Fort Hood, Hood AAF Ft Hood, TX (KHLR)

Lat: 31.13 Lon: 97.7

Local Radar Image active severe weather and emergency alerts image image weather storm and storm spotter reports image weather observation monitoring service image
Local
Radar
Active
Alerts
Storm Reports Obs
Monitoring

iAlert Weather and Emergency Alert Notification Services:


ialert severe weather and emergency alerts by text message and email ialert daily weather forecast by email and text message service ialert real-time weather-observation monitoring and alert notification service ialert storm report monitoring alert notification

Observation History for Fort Hood, Hood AAF Ft Hood, TX


Time Wind
(mph)
Vis
(mi)
Weather Precip (in) Temperature (F) Relative
Humidity
Wind
Chill
(°F)
Heat
Index
(°F)
Pressure
Air Dwpt altimeter
(in)
sea level
(mb)
3:58 am CDT SE 11.5 10.00 Overcast -- 77.0 71.1 83% NA NA 29.90 1011.2
2:58 am CDT SE 16.1 10.00 Overcast -- 77.0 71.4 82% NA NA 29.91 1011.6
1:58 am CDT SE 13.8 G 20.7 10.00 Overcast Trace 78.0 71.8 81% NA NA 29.91 1011.6
12:58 am CDT SE 10.4 10.00 Overcast -- 79.0 73.2 83% NA NA 29.92 1012.0
11:58 pm CDT SE 13.8 10.00 Overcast -- 80.0 72.9 79% NA 84 29.92 1012.0
10:58 pm CDT SE 13.8 10.00 Mostly Cloudy -- 81.0 72.0 75% NA 86 29.92 1012.0
9:58 pm CDT SE 12.7 10.00 Fair -- 81.0 71.4 72% NA 85 29.89 1011.0
8:58 pm CDT E 12.7 9.00 Fair -- 83.0 69.1 62% NA 86 29.89 1011.0
7:58 pm CDT SE 15.0 10.00 Fair -- 86.0 70.3 59% NA 91 29.88 1010.7
6:58 pm CDT E 12.7 10.00 Partly Cloudy -- 90.0 69.4 50% NA 95 29.84 1009.2
5:58 pm CDT E 15.0 10.00 Partly Cloudy -- 89.0 70.9 55% NA 95 29.85 1009.6
4:58 pm CDT E 12.7 10.00 A Few Clouds -- 92.0 69.1 47% NA 97 29.86 1009.9
3:58 pm CDT E 9.2 10.00 Mostly Cloudy -- 92.0 68.2 46% NA 96 29.87 1010.3
2:58 pm CDT SE 8.1 10.00 Overcast -- 90.0 69.1 50% NA 95 29.89 1010.9
1:58 pm CDT SE 5.8 10.00 Partly Cloudy -- 90.0 69.8 52% NA 96 29.91 1011.6
12:58 pm CDT N 0.0 10.00 Overcast -- 86.0 69.8 58% NA 90 29.93 1012.3
11:58 am CDT E 6.9 10.00 Mostly Cloudy -- 83.0 71.1 67% NA 88 29.94 1012.6
10:58 am CDT SE 5.8 10.00 Overcast -- 82.0 71.2 71% NA 87 29.95 1013.0
9:58 am CDT SE 5.8 10.00 Mostly Cloudy -- 80.0 71.4 76% NA 84 29.94 1012.6
8:58 am CDT SE 6.9 10.00 Overcast -- 78.0 71.4 81% NA NA 29.93 1012.3

Regional Weather Observation


Gatesville, City-County Airport, TX (KGOP)

Mostly Cloudy
75.0 F

Fort Hood, Hood AAF Ft Hood, TX (KHLR)

Overcast
77.0 F

Killeen, Skylark Field Airport, TX (KILE)

Mostly Cloudy
77.0 F

Lampasas, Lampasas Airport, TX (KLZZ)

Overcast
75.0 F

Temple, Draughon-Miller Central Texas Regional Airport, TX (KTPL)

Overcast
77.0 F

Hamilton Municipal Airport, TX (KMNZ)

Overcast
76.0 F

Advertise Here